sat.trackr.live / text

‹ back to catalog

STARLINK-30477

NORAD 57912 · 2023-146X

PAYLOAD ACTIVE UNKNOWN

§ Identity

Operator
Country
US
Launch date
2023-09-20
Launch site
AFETR
Launch vehicle
Mass (kg)
RCS (m²)

Purposes: comms

External: N2YO · Heavens-Above · Gunter

§ Orbital elements

Epoch: 2026-09-20T09:03:41.341248Z

Period
94.27 min
Inclination
43.0003°
Eccentricity
0.0001266
Mean motion
15.27575952 rev/d
Perigee alt
482.2 km
Apogee alt
483.9 km
Semi-major
6,861.2 km
B*
2.5733e-5
RAAN
291.0924°
Arg perigee
270.8470°
Mean anomaly
89.2237°
Rev number
16,687

§ Raw data

STARLINK-304771 57912U 23146X   26263.37756182  .00000446  00000+0  25733-4 0  99952 57912  43.0003 291.0924 0001266 270.8470  89.2237 15.27575952166873

JSON: /api/v1/satellites/57912 · /tle

For live sub-satellite position, see the globe view (requires WebGL).

§ Visibility from observer

Set your observer location to see the next 7 days of passes ≥ 10°. The values pass through the URL so the page stays shareable.

No JS? Fill the form by hand. The geolocation button needs JavaScript.